Zurück zum Katalog

GHOST-5

AktivMilitärSSO
NORAD 59130·PAYLOAD·🇺🇸 United States

Gestartet Mar 4, 2024 von Vandenberg Space Force Base

Loading…

Nächste Überflüge (nächste 24 Stunden)

TLE

AktuellSource: Space-Track

Epoche: Sep 14, 2026, 08:25 UTC

1 59130U 24043AJ  26257.35126612  .00012059  00000-0  25716-3 0  9990
2 59130  97.5716  45.3697 0006129 253.1160 106.9416 15.45043904141272

Verfolge GHOST-5 in Echtzeit mit AllMySat

Download on the App Store